FW8560 Weather Reports


Display with metric or nautical units.
time (UTC)temp
F
wind
direction
speed
MPH
gust
MPH
rain 1hr
in
rain 24hr
in
rain mn
in
humidity
%
barometer
mb
20260504220842 65 37 17.0 20.0 0.00 0.00 0.00 32 1004.4
20260504220338 65 15 12.0 17.0 0.00 0.00 0.00 32 1004.5
20260504215836 65 17 13.0 16.0 0.00 0.00 0.00 32 1004.7
20260504215332 65 27 9.0 17.0 0.00 0.00 0.00 32 1004.3
20260504214828 65 20 12.0 20.0 0.00 0.00 0.00 32 1004.7
20260504214325 65 27 11.0 16.0 0.00 0.00 0.00 31 1004.4
20260504213822 66 30 13.0 21.0 0.00 0.00 0.00 31 1004.7
20260504213318 66 32 14.0 20.0 0.00 0.00 0.00 31 1004.4
20260504212815 67 16 11.0 17.0 0.00 0.00 0.00 30 1004.4
20260504212311 66 44 13.0 21.0 0.00 0.00 0.00 31 1004.3
20260504211809 67 18 11.0 19.0 0.00 0.00 0.00 30 1004.3
20260504211305 66 34 10.0 21.0 0.00 0.00 0.00 31 1004.3
20260504210803 66 27 16.0 19.0 0.00 0.00 0.00 30 1004.2
20260504210300 68 45 13.0 21.0 0.00 0.00 0.00 30 1004.1
20260504205757 67 45 17.0 26.0 0.00 0.00 0.00 30 1003.8
20260504205254 68 0 13.0 22.0 0.00 0.00 0.00 29 1004.0
20260504204752 69 35 14.0 24.0 0.00 0.00 0.00 28 1004.0
20260504204250 69 34 11.0 22.0 0.00 0.00 0.00 28 1004.0
20260504203749 68 19 13.0 22.0 0.00 0.00 0.00 28 1004.0
20260504203246 69 14 19.0 23.0 0.00 0.00 0.00 28 1004.1
20260504202741 71 23 13.0 20.0 0.00 0.00 0.00 27 1004.0
20260504202239 69 8 18.0 22.0 0.00 0.00 0.00 28 1004.1
20260504201735 68 47 14.0 20.0 0.00 0.00 0.00 29 1004.0
20260504201232 70 17 14.0 20.0 0.00 0.00 0.00 27 1003.9
20260504200731 70 33 17.0 19.0 0.00 0.00 0.00 28 1004.0
20260504200226 71 36 19.0 24.0 0.00 0.00 0.00 27 1004.0
20260504195723 70 25 17.0 23.0 0.00 0.00 0.00 28 1004.0
20260504195219 70 11 13.0 22.0 0.00 0.00 0.00 28 1004.1
20260504194716 69 31 20.0 26.0 0.00 0.00 0.00 28 1004.0
20260504194212 70 21 18.0 26.0 0.00 0.00 0.00 28 1004.2
20260504193708 71 31 20.0 25.0 0.00 0.00 0.00 28 1004.0
20260504193206 71 5 19.0 22.0 0.00 0.00 0.00 27 1004.0
20260504192704 72 28 19.0 21.0 0.00 0.00 0.00 27 1004.0
20260504192202 70 3 12.0 20.0 0.00 0.00 0.00 28 1004.2
20260504191701 70 358 17.0 19.0 0.00 0.00 0.00 28 1004.3
20260504191156 69 11 10.0 17.0 0.00 0.00 0.00 29 1004.4
20260504190652 71 16 15.0 20.0 0.00 0.00 0.00 28 1004.0
20260504190149 69 23 15.0 19.0 0.00 0.00 0.00 29 1004.3
20260504185645 68 22 16.0 22.0 0.00 0.00 0.00 30 1003.9
20260504185142 69 0 18.0 24.0 0.00 0.00 0.00 30 1004.1
20260504184638 70 23 15.0 22.0 0.00 0.00 0.00 30 1003.8
20260504184133 70 6 20.0 23.0 0.00 0.00 0.00 29 1003.9
20260504183630 71 18 17.0 24.0 0.00 0.00 0.00 30 1003.8
20260504183128 69 14 18.0 21.0 0.00 0.00 0.00 32 1003.6
20260504182625 71 7 16.0 23.0 0.00 0.00 0.00 30 1003.8
20260504182123 70 28 17.0 22.0 0.00 0.00 0.00 31 1003.5
20260504181620 70 355 16.0 23.0 0.00 0.00 0.00 31 1003.4
20260504181117 73 27 10.0 19.0 0.00 0.00 0.00 28 1003.4
20260504180617 72 15 19.0 25.0 0.00 0.00 0.00 28 1003.6
20260504180115 73 19 10.0 15.0 0.00 0.00 0.00 27 1003.8
20260504175612 73 8 13.0 18.0 0.00 0.00 0.00 27 1003.6
20260504175108 72 33 19.0 21.0 0.00 0.00 0.00 29 1003.3
20260504174607 72 6 12.0 16.0 0.00 0.00 0.00 26 1003.5
20260504174103 70 18 15.0 21.0 0.00 0.00 0.00 28 1003.3
20260504173600 70 13 16.0 28.0 0.00 0.00 0.00 30 1003.8
20260504173058 70 11 11.0 19.0 0.00 0.00 0.00 28 1003.6
20260504172553 70 16 15.0 17.0 0.00 0.00 0.00 27 1003.5
20260504172050 73 24 9.0 10.0 0.00 0.00 0.00 21 1003.4
20260504171547 75 122 5.0 9.0 0.00 0.00 0.00 20 1003.3
20260504171044 74 114 3.0 7.0 0.00 0.00 0.00 20 1003.4
20260504170539 74 100 0.0 3.0 0.00 0.00 0.00 21 1003.2
20260504150924 66 340 1.0 3.0 0.00 0.00 0.00 31 1003.8
20260504150420 66 249 1.0 3.0 0.00 0.00 0.00 31 1004.0
20260504140847 58 288 7.0 9.0 0.00 0.00 0.00 38 1005.4
20260504140343 57 330 3.0 6.0 0.00 0.00 0.00 40 1005.2
20260504130812 46 327 3.0 4.0 0.00 0.00 0.00 57 1006.8
20260504130308 45 357 1.0 3.0 0.00 0.00 0.00 60 1006.9
20260504120231 35 27 0.0 2.0 0.00 0.00 0.00 77 1007.8
20260504110659 34 298 4.0 5.0 0.00 0.00 0.00 80 1007.4
20260504110155 34 282 4.0 5.0 0.00 0.00 0.00 79 1007.6
20260504100615 36 294 8.0 11.0 0.00 0.00 0.00 77 1007.4
20260504100113 37 290 5.0 9.0 0.00 0.00 0.00 76 1007.4
20260504081506 38 312 2.0 3.0 0.00 0.00 0.00 76 1007.8
20260504081001 37 286 3.0 3.0 0.00 0.00 0.00 76 1007.8
20260504080458 37 293 3.0 4.0 0.00 0.00 0.00 76 1007.9
20260504050311 45 357 1.0 3.0 0.00 0.00 0.00 64 1008.4
20260504045808 44 266 2.0 3.0 0.00 0.00 0.00 65 1008.3
20260504045304 44 299 2.0 3.0 0.00 0.00 0.00 64 1008.1
20260504044800 46 335 2.0 3.0 0.00 0.00 0.00 62 1008.6
20260504044258 47 53 2.0 2.0 0.00 0.00 0.00 62 1008.5
20260504043755 48 110 3.0 3.0 0.00 0.00 0.00 62 1008.4
20260504043251 48 105 2.0 2.0 0.00 0.00 0.00 63 1008.5
20260504042749 49 92 2.0 2.0 0.00 0.00 0.00 61 1008.4
20260504042245 50 126 3.0 4.0 0.00 0.00 0.00 59 1008.4
20260504041742 50 105 3.0 4.0 0.00 0.00 0.00 59 1008.5
20260504041238 51 116 4.0 5.0 0.00 0.00 0.00 57 1008.3
20260504040734 51 132 4.0 5.0 0.00 0.00 0.00 59 1008.3
20260504040232 53 134 5.0 6.0 0.00 0.00 0.00 54 1008.4
20260504035727 52 128 4.0 5.0 0.00 0.00 0.00 54 1008.2
20260504035225 52 73 2.0 3.0 0.00 0.00 0.00 56 1008.3
20260504034723 52 156 2.0 4.0 0.00 0.00 0.00 58 1008.2
20260504034219 52 127 5.0 7.0 0.00 0.00 0.00 58 1008.2
20260504033717 54 141 4.0 5.0 0.00 0.00 0.00 53 1008.3
20260504033214 56 105 5.0 8.0 0.00 0.00 0.00 47 1008.1
20260504032711 57 72 5.0 7.0 0.00 0.00 0.00 46 1008.1
20260504032209 54 118 4.0 6.0 0.00 0.00 0.00 51 1008.1
20260504031705 53 132 3.0 4.0 0.00 0.00 0.00 52 1007.9
20260504031202 54 147 5.0 5.0 0.00 0.00 0.00 52 1007.9
20260504030658 56 91 2.0 4.0 0.00 0.00 0.00 45 1007.9
20260504030155 57 41 6.0 7.0 0.00 0.00 0.00 45 1007.5
20260504025652 57 37 6.0 8.0 0.00 0.00 0.00 45 1007.7
20260504025149 58 20 5.0 8.0 0.00 0.00 0.00 44 1007.7
20260504024646 58 26 10.0 13.0 0.00 0.00 0.00 43 1007.6
20260504024142 59 21 8.0 13.0 0.00 0.00 0.00 42 1007.5
20260504023639 59 23 10.0 15.0 0.00 0.00 0.00 41 1007.4
20260504023135 60 16 14.0 19.0 0.00 0.00 0.00 40 1007.6
20260504022632 61 24 16.0 19.0 0.00 0.00 0.00 39 1007.1
20260504022127 61 18 11.0 17.0 0.00 0.00 0.00 39 1006.9
20260504021626 61 13 13.0 21.0 0.00 0.00 0.00 39 1006.9
20260504021122 62 15 20.0 24.0 0.00 0.00 0.00 38 1006.8
20260504020619 62 7 22.0 24.0 0.00 0.00 0.00 37 1007.0
20260504020115 63 10 9.0 10.0 0.00 0.00 0.00 30 1006.8
20260504015612 62 26 6.0 7.0 0.00 0.00 0.00 32 1006.8
20260504015108 61 20 3.0 5.0 0.00 0.00 0.00 33 1006.5
20260504014604 61 11 2.0 4.0 0.00 0.00 0.00 33 1006.2
20260504014101 64 39 2.0 2.0 0.00 0.00 0.00 33 1006.5
20260504013559 65 77 2.0 3.0 0.00 0.00 0.00 32 1006.1
20260504013055 65 86 3.0 4.0 0.00 0.00 0.00 32 1005.9
20260504012553 65 89 3.0 4.0 0.00 0.00 0.00 32 1006.0
20260504012051 66 95 4.0 5.0 0.00 0.00 0.00 31 1006.1
20260504011547 68 95 4.0 5.0 0.00 0.00 0.00 29 1005.9
20260504011043 68 99 4.0 6.0 0.00 0.00 0.00 27 1005.9
20260504010539 68 107 3.0 3.0 0.00 0.00 0.00 29 1005.9
20260504010036 68 122 3.0 6.0 0.00 0.00 0.00 27 1005.8
20260504005532 69 118 5.0 6.0 0.00 0.00 0.00 28 1005.7
20260504005030 68 138 4.0 6.0 0.00 0.00 0.00 27 1005.6
20260504004528 68 123 7.0 8.0 0.00 0.00 0.00 27 1005.7
20260504004024 69 114 5.0 7.0 0.00 0.00 0.00 26 1005.7
20260504003520 69 116 4.0 7.0 0.00 0.00 0.00 27 1005.7
20260504003017 70 110 3.0 4.0 0.00 0.00 0.00 25 1005.3
20260504002514 73 123 4.0 7.0 0.00 0.00 0.00 23 1005.7
20260504002012 72 130 4.0 8.0 0.00 0.00 0.00 23 1005.4
20260504001509 74 142 7.0 8.0 0.00 0.00 0.00 22 1005.6
20260504001005 73 186 5.0 9.0 0.00 0.00 0.00 21 1005.8
20260504000503 72 124 3.0 4.0 0.00 0.00 0.00 23 1005.9
20260504000000 73 154 3.0 5.0 0.00 0.00 0.00 22 1006.0
20260503235458 73 119 7.0 12.0 0.00 0.00 0.00 22 1006.0
20260503234955 75 156 5.0 5.0 0.00 0.00 0.00 22 1006.0
20260503234452 74 211 0.0 3.0 0.00 0.00 0.00 21 1006.0
20260503233950 77 251 2.0 3.0 0.00 0.00 0.00 20 1006.0
20260503233446 77 285 4.0 5.0 0.00 0.00 0.00 19 1006.2
20260503232943 76 248 3.0 7.0 0.00 0.00 0.00 20 1006.4
20260503232440 76 255 5.0 10.0 0.00 0.00 0.00 20 1006.6
20260503231938 75 200 2.0 6.0 0.00 0.00 0.00 21 1006.6
20260503231435 73 173 5.0 11.0 0.00 0.00 0.00 24 1006.6
20260503230931 72 131 3.0 6.0 0.00 0.00 0.00 23 1006.6
20260503230428 72 167 2.0 3.0 0.00 0.00 0.00 23 1006.6
20260503225926 73 146 9.0 10.0 0.00 0.00 0.00 23 1006.6
20260503225422 73 198 6.0 10.0 0.00 0.00 0.00 22 1006.5
20260503224918 72 89 4.0 9.0 0.00 0.00 0.00 23 1006.5
20260503224415 72 129 6.0 11.0 0.00 0.00 0.00 23 1006.6
20260503223913 75 122 7.0 7.0 0.00 0.00 0.00 23 1006.6
20260503223410 73 135 7.0 13.0 0.00 0.00 0.00 23 1006.6
20260503222911 73 70 5.0 12.0 0.00 0.00 0.00 23 1006.6
20260503222409 73 118 7.0 10.0 0.00 0.00 0.00 24 1006.8
20260503221907 71 157 4.0 6.0 0.00 0.00 0.00 25 1006.9
20260503221406 72 147 9.0 10.0 0.00 0.00 0.00 26 1007.0